STARLINK-1575 (46349 NORAD) Tracking and Keplerian Element Data

This shows tracking and keplerian element data for the satellite.

Feedback or suggestion? Click here.




ElementValue
Catalog46349
NameSTARLINK-1575
Epoch Orbit178
Epoch Day268.91668981
Epoch Year2020
RAAN324.4625
Inclination53.0006
Eccentricity0.0001261
Argument of Perigee62.3155
Mean Anonmoly163.0389
Mean Motion15.62753756
Decay Rate0.00021948
L11 46349U 20062AA 20268.91668981 .00021948 00000-0 24487-3 0 9994
L22 46349 53.0006 324.4625 0001261 62.3155 163.0389 15.62753756 1783

Live tracking and technical data element details for STARLINK-1575 (NORAD 46349). STARLINK-1575 can be tracked NOW for your location showing map with azimuth and elevation plus other details from your city location.

Track the satellite on the map from your city or location and see movement details for azimuth, elevation, latitude, longitude, range, height, and movement on the map or in text.







IsCatalogInMostPopularTable: catalog: 46349, numindb: 3
Update: records affected: 1



GetName: 46349 STARLINK-1575

Hit Count: updated at: Mon, 28 Sep 2020 20:30:14 GMT